Index of /20260429/WXO-DD/model_caps/3km/00/009
Name Last modified Size Description
Parent Directory -
20260429T00Z_MSC_CAPS_AbsoluteVorticity_IsbL-0250_RLatLon0.03_PT009H.grib2 2026-04-29 06:06 917K
20260429T00Z_MSC_CAPS_AbsoluteVorticity_IsbL-0500_RLatLon0.03_PT009H.grib2 2026-04-29 06:06 1.1M
20260429T00Z_MSC_CAPS_AbsoluteVorticity_IsbL-0700_RLatLon0.03_PT009H.grib2 2026-04-29 06:06 1.4M
20260429T00Z_MSC_CAPS_AbsoluteVorticity_IsbL-0850_RLatLon0.03_PT009H.grib2 2026-04-29 06:06 1.2M
20260429T00Z_MSC_CAPS_AbsoluteVorticity_IsbL-1000_RLatLon0.03_PT009H.grib2 2026-04-29 06:06 1.3M
20260429T00Z_MSC_CAPS_AirDensity_AGL-120m_RLatLon0.03_PT009H.grib2 2026-04-29 06:06 1.4M
20260429T00Z_MSC_CAPS_AirDensity_AGL-40m_RLatLon0.03_PT009H.grib2 2026-04-29 06:06 1.4M
20260429T00Z_MSC_CAPS_AirDensity_AGL-80m_RLatLon0.03_PT009H.grib2 2026-04-29 06:06 1.4M
20260429T00Z_MSC_CAPS_AirTemp_AGL-120m_RLatLon0.03_PT009H.grib2 2026-04-29 06:06 1.7M
20260429T00Z_MSC_CAPS_AirTemp_AGL-2m_RLatLon0.03_PT009H.grib2 2026-04-29 06:06 1.8M
20260429T00Z_MSC_CAPS_AirTemp_AGL-40m_RLatLon0.03_PT009H.grib2 2026-04-29 06:06 1.9M
20260429T00Z_MSC_CAPS_AirTemp_AGL-80m_RLatLon0.03_PT009H.grib2 2026-04-29 06:06 1.8M
20260429T00Z_MSC_CAPS_AirTemp_IsbL-0050_RLatLon0.03_PT009H.grib2 2026-04-29 06:06 692K
20260429T00Z_MSC_CAPS_AirTemp_IsbL-0100_RLatLon0.03_PT009H.grib2 2026-04-29 06:06 964K
20260429T00Z_MSC_CAPS_AirTemp_IsbL-0150_RLatLon0.03_PT009H.grib2 2026-04-29 06:06 1.0M
20260429T00Z_MSC_CAPS_AirTemp_IsbL-0175_RLatLon0.03_PT009H.grib2 2026-04-29 06:06 777K
20260429T00Z_MSC_CAPS_AirTemp_IsbL-0200_RLatLon0.03_PT009H.grib2 2026-04-29 06:06 794K
20260429T00Z_MSC_CAPS_AirTemp_IsbL-0225_RLatLon0.03_PT009H.grib2 2026-04-29 06:06 794K
20260429T00Z_MSC_CAPS_AirTemp_IsbL-0250_RLatLon0.03_PT009H.grib2 2026-04-29 06:06 791K
20260429T00Z_MSC_CAPS_AirTemp_IsbL-0275_RLatLon0.03_PT009H.grib2 2026-04-29 06:06 786K
20260429T00Z_MSC_CAPS_AirTemp_IsbL-0300_RLatLon0.03_PT009H.grib2 2026-04-29 06:06 1.0M
20260429T00Z_MSC_CAPS_AirTemp_IsbL-0350_RLatLon0.03_PT009H.grib2 2026-04-29 06:06 1.0M
20260429T00Z_MSC_CAPS_AirTemp_IsbL-0400_RLatLon0.03_PT009H.grib2 2026-04-29 06:06 754K
20260429T00Z_MSC_CAPS_AirTemp_IsbL-0450_RLatLon0.03_PT009H.grib2 2026-04-29 06:06 765K
20260429T00Z_MSC_CAPS_AirTemp_IsbL-0500_RLatLon0.03_PT009H.grib2 2026-04-29 06:06 777K
20260429T00Z_MSC_CAPS_AirTemp_IsbL-0550_RLatLon0.03_PT009H.grib2 2026-04-29 06:06 791K
20260429T00Z_MSC_CAPS_AirTemp_IsbL-0600_RLatLon0.03_PT009H.grib2 2026-04-29 06:06 806K
20260429T00Z_MSC_CAPS_AirTemp_IsbL-0650_RLatLon0.03_PT009H.grib2 2026-04-29 06:06 1.0M
20260429T00Z_MSC_CAPS_AirTemp_IsbL-0700_RLatLon0.03_PT009H.grib2 2026-04-29 06:06 1.0M
20260429T00Z_MSC_CAPS_AirTemp_IsbL-0750_RLatLon0.03_PT009H.grib2 2026-04-29 06:06 936K
20260429T00Z_MSC_CAPS_AirTemp_IsbL-0800_RLatLon0.03_PT009H.grib2 2026-04-29 06:06 1.0M
20260429T00Z_MSC_CAPS_AirTemp_IsbL-0850_RLatLon0.03_PT009H.grib2 2026-04-29 06:06 1.1M
20260429T00Z_MSC_CAPS_AirTemp_IsbL-0875_RLatLon0.03_PT009H.grib2 2026-04-29 06:06 1.1M
20260429T00Z_MSC_CAPS_AirTemp_IsbL-0900_RLatLon0.03_PT009H.grib2 2026-04-29 06:06 1.1M
20260429T00Z_MSC_CAPS_AirTemp_IsbL-0925_RLatLon0.03_PT009H.grib2 2026-04-29 06:06 1.1M
20260429T00Z_MSC_CAPS_AirTemp_IsbL-0950_RLatLon0.03_PT009H.grib2 2026-04-29 06:06 1.2M
20260429T00Z_MSC_CAPS_AirTemp_IsbL-0970_RLatLon0.03_PT009H.grib2 2026-04-29 06:06 1.2M
20260429T00Z_MSC_CAPS_AirTemp_IsbL-0985_RLatLon0.03_PT009H.grib2 2026-04-29 06:06 1.2M
20260429T00Z_MSC_CAPS_AirTemp_IsbL-1000_RLatLon0.03_PT009H.grib2 2026-04-29 06:06 1.1M
20260429T00Z_MSC_CAPS_AirTemp_IsbL-1015_RLatLon0.03_PT009H.grib2 2026-04-29 06:06 1.1M
20260429T00Z_MSC_CAPS_Albedo_Sfc_RLatLon0.03_PT009H.grib2 2026-04-29 06:06 2.7M
20260429T00Z_MSC_CAPS_CAPE_Sfc_RLatLon0.03_PT009H.grib2 2026-04-29 06:06 43K
20260429T00Z_MSC_CAPS_CloudWater_EAtm_RLatLon0.03_PT009H.grib2 2026-04-29 06:06 1.4M
20260429T00Z_MSC_CAPS_ConvectivePrecip-Accum_Sfc_RLatLon0.03_PT009H.grib2 2026-04-29 06:06 2.2M
20260429T00Z_MSC_CAPS_DewPointDepression_AGL-120m_RLatLon0.03_PT009H.grib2 2026-04-29 06:06 2.0M
20260429T00Z_MSC_CAPS_DewPointDepression_AGL-2m_RLatLon0.03_PT009H.grib2 2026-04-29 06:06 2.1M
20260429T00Z_MSC_CAPS_DewPointDepression_AGL-40m_RLatLon0.03_PT009H.grib2 2026-04-29 06:06 2.1M
20260429T00Z_MSC_CAPS_DewPointDepression_AGL-80m_RLatLon0.03_PT009H.grib2 2026-04-29 06:06 2.1M
20260429T00Z_MSC_CAPS_DewPointDepression_IsbL-0050_RLatLon0.03_PT009H.grib2 2026-04-29 06:06 956
20260429T00Z_MSC_CAPS_DewPointDepression_IsbL-0100_RLatLon0.03_PT009H.grib2 2026-04-29 06:06 134K
20260429T00Z_MSC_CAPS_DewPointDepression_IsbL-0150_RLatLon0.03_PT009H.grib2 2026-04-29 06:06 150K
20260429T00Z_MSC_CAPS_DewPointDepression_IsbL-0175_RLatLon0.03_PT009H.grib2 2026-04-29 06:06 210K
20260429T00Z_MSC_CAPS_DewPointDepression_IsbL-0200_RLatLon0.03_PT009H.grib2 2026-04-29 06:06 374K
20260429T00Z_MSC_CAPS_DewPointDepression_IsbL-0225_RLatLon0.03_PT009H.grib2 2026-04-29 06:06 676K
20260429T00Z_MSC_CAPS_DewPointDepression_IsbL-0250_RLatLon0.03_PT009H.grib2 2026-04-29 06:06 872K
20260429T00Z_MSC_CAPS_DewPointDepression_IsbL-0275_RLatLon0.03_PT009H.grib2 2026-04-29 06:06 1.0M
20260429T00Z_MSC_CAPS_DewPointDepression_IsbL-0300_RLatLon0.03_PT009H.grib2 2026-04-29 06:06 1.0M
20260429T00Z_MSC_CAPS_DewPointDepression_IsbL-0350_RLatLon0.03_PT009H.grib2 2026-04-29 06:06 1.1M
20260429T00Z_MSC_CAPS_DewPointDepression_IsbL-0400_RLatLon0.03_PT009H.grib2 2026-04-29 06:06 1.1M
20260429T00Z_MSC_CAPS_DewPointDepression_IsbL-0450_RLatLon0.03_PT009H.grib2 2026-04-29 06:06 1.1M
20260429T00Z_MSC_CAPS_DewPointDepression_IsbL-0500_RLatLon0.03_PT009H.grib2 2026-04-29 06:06 1.1M
20260429T00Z_MSC_CAPS_DewPointDepression_IsbL-0550_RLatLon0.03_PT009H.grib2 2026-04-29 06:06 1.2M
20260429T00Z_MSC_CAPS_DewPointDepression_IsbL-0600_RLatLon0.03_PT009H.grib2 2026-04-29 06:06 1.2M
20260429T00Z_MSC_CAPS_DewPointDepression_IsbL-0650_RLatLon0.03_PT009H.grib2 2026-04-29 06:06 1.2M
20260429T00Z_MSC_CAPS_DewPointDepression_IsbL-0700_RLatLon0.03_PT009H.grib2 2026-04-29 06:06 1.2M
20260429T00Z_MSC_CAPS_DewPointDepression_IsbL-0750_RLatLon0.03_PT009H.grib2 2026-04-29 06:06 1.2M
20260429T00Z_MSC_CAPS_DewPointDepression_IsbL-0800_RLatLon0.03_PT009H.grib2 2026-04-29 06:06 1.3M
20260429T00Z_MSC_CAPS_DewPointDepression_IsbL-0850_RLatLon0.03_PT009H.grib2 2026-04-29 06:06 1.3M
20260429T00Z_MSC_CAPS_DewPointDepression_IsbL-0875_RLatLon0.03_PT009H.grib2 2026-04-29 06:06 1.3M
20260429T00Z_MSC_CAPS_DewPointDepression_IsbL-0900_RLatLon0.03_PT009H.grib2 2026-04-29 06:06 1.3M
20260429T00Z_MSC_CAPS_DewPointDepression_IsbL-0925_RLatLon0.03_PT009H.grib2 2026-04-29 06:06 1.3M
20260429T00Z_MSC_CAPS_DewPointDepression_IsbL-0950_RLatLon0.03_PT009H.grib2 2026-04-29 06:06 1.3M
20260429T00Z_MSC_CAPS_DewPointDepression_IsbL-0970_RLatLon0.03_PT009H.grib2 2026-04-29 06:06 1.3M
20260429T00Z_MSC_CAPS_DewPointDepression_IsbL-0985_RLatLon0.03_PT009H.grib2 2026-04-29 06:06 1.3M
20260429T00Z_MSC_CAPS_DewPointDepression_IsbL-1000_RLatLon0.03_PT009H.grib2 2026-04-29 06:06 1.3M
20260429T00Z_MSC_CAPS_DewPointDepression_IsbL-1015_RLatLon0.03_PT009H.grib2 2026-04-29 06:06 1.3M
20260429T00Z_MSC_CAPS_DewPoint_AGL-120m_RLatLon0.03_PT009H.grib2 2026-04-29 06:06 3.6M
20260429T00Z_MSC_CAPS_DewPoint_AGL-2m_RLatLon0.03_PT009H.grib2 2026-04-29 06:06 1.8M
20260429T00Z_MSC_CAPS_DewPoint_AGL-40m_RLatLon0.03_PT009H.grib2 2026-04-29 06:06 3.7M
20260429T00Z_MSC_CAPS_DewPoint_AGL-80m_RLatLon0.03_PT009H.grib2 2026-04-29 06:06 3.6M
20260429T00Z_MSC_CAPS_DownwardLongwaveRadiationFlux-Accum_Sfc_RLatLon0.03_PT009H.grib2 2026-04-29 06:06 2.1M
20260429T00Z_MSC_CAPS_DownwardShortwaveRadiationFlux-Accum_NTAtm_RLatLon0.03_PT009H.grib2 2026-04-29 06:06 438K
20260429T00Z_MSC_CAPS_DownwardShortwaveRadiationFlux-Accum_Sfc_RLatLon0.03_PT009H.grib2 2026-04-29 06:06 2.0M
20260429T00Z_MSC_CAPS_FreezingRain-Accum_Sfc_RLatLon0.03_PT009H.grib2 2026-04-29 06:06 397K
20260429T00Z_MSC_CAPS_GeopotentialHeight_IsbL-0050_RLatLon0.03_PT009H.grib2 2026-04-29 06:06 643K
20260429T00Z_MSC_CAPS_GeopotentialHeight_IsbL-0100_RLatLon0.03_PT009H.grib2 2026-04-29 06:06 768K
20260429T00Z_MSC_CAPS_GeopotentialHeight_IsbL-0150_RLatLon0.03_PT009H.grib2 2026-04-29 06:06 731K
20260429T00Z_MSC_CAPS_GeopotentialHeight_IsbL-0175_RLatLon0.03_PT009H.grib2 2026-04-29 06:06 740K
20260429T00Z_MSC_CAPS_GeopotentialHeight_IsbL-0200_RLatLon0.03_PT009H.grib2 2026-04-29 06:06 743K
20260429T00Z_MSC_CAPS_GeopotentialHeight_IsbL-0225_RLatLon0.03_PT009H.grib2 2026-04-29 06:06 752K
20260429T00Z_MSC_CAPS_GeopotentialHeight_IsbL-0250_RLatLon0.03_PT009H.grib2 2026-04-29 06:06 764K
20260429T00Z_MSC_CAPS_GeopotentialHeight_IsbL-0275_RLatLon0.03_PT009H.grib2 2026-04-29 06:06 773K
20260429T00Z_MSC_CAPS_GeopotentialHeight_IsbL-0300_RLatLon0.03_PT009H.grib2 2026-04-29 06:06 778K
20260429T00Z_MSC_CAPS_GeopotentialHeight_IsbL-0350_RLatLon0.03_PT009H.grib2 2026-04-29 06:06 777K
20260429T00Z_MSC_CAPS_GeopotentialHeight_IsbL-0400_RLatLon0.03_PT009H.grib2 2026-04-29 06:06 768K
20260429T00Z_MSC_CAPS_GeopotentialHeight_IsbL-0450_RLatLon0.03_PT009H.grib2 2026-04-29 06:06 760K
20260429T00Z_MSC_CAPS_GeopotentialHeight_IsbL-0500_RLatLon0.03_PT009H.grib2 2026-04-29 06:06 752K
20260429T00Z_MSC_CAPS_GeopotentialHeight_IsbL-0550_RLatLon0.03_PT009H.grib2 2026-04-29 06:06 745K
20260429T00Z_MSC_CAPS_GeopotentialHeight_IsbL-0600_RLatLon0.03_PT009H.grib2 2026-04-29 06:06 629K
20260429T00Z_MSC_CAPS_GeopotentialHeight_IsbL-0650_RLatLon0.03_PT009H.grib2 2026-04-29 06:06 630K
20260429T00Z_MSC_CAPS_GeopotentialHeight_IsbL-0700_RLatLon0.03_PT009H.grib2 2026-04-29 06:06 802K
20260429T00Z_MSC_CAPS_GeopotentialHeight_IsbL-0750_RLatLon0.03_PT009H.grib2 2026-04-29 06:06 802K
20260429T00Z_MSC_CAPS_GeopotentialHeight_IsbL-0800_RLatLon0.03_PT009H.grib2 2026-04-29 06:06 884K
20260429T00Z_MSC_CAPS_GeopotentialHeight_IsbL-0850_RLatLon0.03_PT009H.grib2 2026-04-29 06:06 896K
20260429T00Z_MSC_CAPS_GeopotentialHeight_IsbL-0875_RLatLon0.03_PT009H.grib2 2026-04-29 06:06 905K
20260429T00Z_MSC_CAPS_GeopotentialHeight_IsbL-0900_RLatLon0.03_PT009H.grib2 2026-04-29 06:06 911K
20260429T00Z_MSC_CAPS_GeopotentialHeight_IsbL-0925_RLatLon0.03_PT009H.grib2 2026-04-29 06:06 920K
20260429T00Z_MSC_CAPS_GeopotentialHeight_IsbL-0950_RLatLon0.03_PT009H.grib2 2026-04-29 06:06 932K
20260429T00Z_MSC_CAPS_GeopotentialHeight_IsbL-0970_RLatLon0.03_PT009H.grib2 2026-04-29 06:06 944K
20260429T00Z_MSC_CAPS_GeopotentialHeight_IsbL-0985_RLatLon0.03_PT009H.grib2 2026-04-29 06:06 955K
20260429T00Z_MSC_CAPS_GeopotentialHeight_IsbL-1000_RLatLon0.03_PT009H.grib2 2026-04-29 06:06 965K
20260429T00Z_MSC_CAPS_GeopotentialHeight_IsbL-1015_RLatLon0.03_PT009H.grib2 2026-04-29 06:06 1.0M
20260429T00Z_MSC_CAPS_GeopotentialHeight_Sfc_RLatLon0.03_PT009H.grib2 2026-04-29 06:06 1.0M
20260429T00Z_MSC_CAPS_IcePellets-Accum_Sfc_RLatLon0.03_PT009H.grib2 2026-04-29 06:06 40K
20260429T00Z_MSC_CAPS_LatentHeatNetFlux_Sfc_RLatLon0.03_PT009H.grib2 2026-04-29 06:06 2.1M
20260429T00Z_MSC_CAPS_LiftedIndex-MU-VT_IsbL-0500_RLatLon0.03_PT009H.grib2 2026-04-29 06:06 3.3M
20260429T00Z_MSC_CAPS_MixedLayerThickness_Sfc_RLatLon0.03_PT009H.nc 2026-04-29 06:11 17M
20260429T00Z_MSC_CAPS_NetLongwaveRadiationFlux-Accum_Sfc_RLatLon0.03_PT009H.grib2 2026-04-29 06:06 2.9M
20260429T00Z_MSC_CAPS_NetShortwaveRadiationFlux-Accum_Sfc_RLatLon0.03_PT009H.grib2 2026-04-29 06:06 2.0M
20260429T00Z_MSC_CAPS_PlanetaryBoundaryLayerHeight_Sfc_RLatLon0.03_PT009H.grib2 2026-04-29 06:06 2.7M
20260429T00Z_MSC_CAPS_Precip-Accum_Sfc_RLatLon0.03_PT009H.grib2 2026-04-29 06:06 3.4M
20260429T00Z_MSC_CAPS_PrecipRate_Sfc_RLatLon0.03_PT009H.grib2 2026-04-29 06:06 339K
20260429T00Z_MSC_CAPS_PrecipType-Instant_Sfc_RLatLon0.03_PT009H.grib2 2026-04-29 06:06 1.6M
20260429T00Z_MSC_CAPS_Pressure_MSL_RLatLon0.03_PT009H.grib2 2026-04-29 06:06 771K
20260429T00Z_MSC_CAPS_Pressure_Sfc_RLatLon0.03_PT009H.grib2 2026-04-29 06:06 1.2M
20260429T00Z_MSC_CAPS_RadiativeTemp_Sfc_RLatLon0.03_PT009H.grib2 2026-04-29 06:06 2.1M
20260429T00Z_MSC_CAPS_Rain-Accum_Sfc_RLatLon0.03_PT009H.grib2 2026-04-29 06:06 1.6M
20260429T00Z_MSC_CAPS_RelativeHumidity_AGL-120m_RLatLon0.03_PT009H.grib2 2026-04-29 06:06 2.7M
20260429T00Z_MSC_CAPS_RelativeHumidity_AGL-2m_RLatLon0.03_PT009H.grib2 2026-04-29 06:06 2.9M
20260429T00Z_MSC_CAPS_RelativeHumidity_AGL-40m_RLatLon0.03_PT009H.grib2 2026-04-29 06:06 2.8M
20260429T00Z_MSC_CAPS_RelativeHumidity_AGL-80m_RLatLon0.03_PT009H.grib2 2026-04-29 06:06 2.7M
20260429T00Z_MSC_CAPS_RelativeHumidity_IsbL-0050_RLatLon0.03_PT009H.grib2 2026-04-29 06:06 1.0M
20260429T00Z_MSC_CAPS_RelativeHumidity_IsbL-0100_RLatLon0.03_PT009H.grib2 2026-04-29 06:06 871K
20260429T00Z_MSC_CAPS_RelativeHumidity_IsbL-0150_RLatLon0.03_PT009H.grib2 2026-04-29 06:06 764K
20260429T00Z_MSC_CAPS_RelativeHumidity_IsbL-0175_RLatLon0.03_PT009H.grib2 2026-04-29 06:06 494K
20260429T00Z_MSC_CAPS_RelativeHumidity_IsbL-0200_RLatLon0.03_PT009H.grib2 2026-04-29 06:06 666K
20260429T00Z_MSC_CAPS_RelativeHumidity_IsbL-0225_RLatLon0.03_PT009H.grib2 2026-04-29 06:06 877K
20260429T00Z_MSC_CAPS_RelativeHumidity_IsbL-0250_RLatLon0.03_PT009H.grib2 2026-04-29 06:06 1.1M
20260429T00Z_MSC_CAPS_RelativeHumidity_IsbL-0275_RLatLon0.03_PT009H.grib2 2026-04-29 06:06 1.3M
20260429T00Z_MSC_CAPS_RelativeHumidity_IsbL-0300_RLatLon0.03_PT009H.grib2 2026-04-29 06:06 1.5M
20260429T00Z_MSC_CAPS_RelativeHumidity_IsbL-0350_RLatLon0.03_PT009H.grib2 2026-04-29 06:06 1.8M
20260429T00Z_MSC_CAPS_RelativeHumidity_IsbL-0400_RLatLon0.03_PT009H.grib2 2026-04-29 06:06 1.9M
20260429T00Z_MSC_CAPS_RelativeHumidity_IsbL-0450_RLatLon0.03_PT009H.grib2 2026-04-29 06:06 1.9M
20260429T00Z_MSC_CAPS_RelativeHumidity_IsbL-0500_RLatLon0.03_PT009H.grib2 2026-04-29 06:06 2.1M
20260429T00Z_MSC_CAPS_RelativeHumidity_IsbL-0550_RLatLon0.03_PT009H.grib2 2026-04-29 06:06 2.1M
20260429T00Z_MSC_CAPS_RelativeHumidity_IsbL-0600_RLatLon0.03_PT009H.grib2 2026-04-29 06:06 2.1M
20260429T00Z_MSC_CAPS_RelativeHumidity_IsbL-0650_RLatLon0.03_PT009H.grib2 2026-04-29 06:06 2.1M
20260429T00Z_MSC_CAPS_RelativeHumidity_IsbL-0700_RLatLon0.03_PT009H.grib2 2026-04-29 06:06 2.3M
20260429T00Z_MSC_CAPS_RelativeHumidity_IsbL-0750_RLatLon0.03_PT009H.grib2 2026-04-29 06:06 2.3M
20260429T00Z_MSC_CAPS_RelativeHumidity_IsbL-0800_RLatLon0.03_PT009H.grib2 2026-04-29 06:06 2.3M
20260429T00Z_MSC_CAPS_RelativeHumidity_IsbL-0850_RLatLon0.03_PT009H.grib2 2026-04-29 06:06 2.4M
20260429T00Z_MSC_CAPS_RelativeHumidity_IsbL-0875_RLatLon0.03_PT009H.grib2 2026-04-29 06:06 2.4M
20260429T00Z_MSC_CAPS_RelativeHumidity_IsbL-0900_RLatLon0.03_PT009H.grib2 2026-04-29 06:06 2.5M
20260429T00Z_MSC_CAPS_RelativeHumidity_IsbL-0925_RLatLon0.03_PT009H.grib2 2026-04-29 06:06 2.5M
20260429T00Z_MSC_CAPS_RelativeHumidity_IsbL-0950_RLatLon0.03_PT009H.grib2 2026-04-29 06:06 2.6M
20260429T00Z_MSC_CAPS_RelativeHumidity_IsbL-0970_RLatLon0.03_PT009H.grib2 2026-04-29 06:06 2.7M
20260429T00Z_MSC_CAPS_RelativeHumidity_IsbL-0985_RLatLon0.03_PT009H.grib2 2026-04-29 06:06 2.8M
20260429T00Z_MSC_CAPS_RelativeHumidity_IsbL-1000_RLatLon0.03_PT009H.grib2 2026-04-29 06:06 2.9M
20260429T00Z_MSC_CAPS_RelativeHumidity_IsbL-1015_RLatLon0.03_PT009H.grib2 2026-04-29 06:06 2.9M
20260429T00Z_MSC_CAPS_Runoff-Accum_Sfc_RLatLon0.03_PT009H.grib2 2026-04-29 06:06 266K
20260429T00Z_MSC_CAPS_SeaIceAreaFraction_Sfc_RLatLon0.03_PT009H.nc 2026-04-29 06:11 15M
20260429T00Z_MSC_CAPS_SeaIceCompressiveStrength_Sfc_RLatLon0.03_PT009H.nc 2026-04-29 06:11 15M
20260429T00Z_MSC_CAPS_SeaIceDivergence_Sfc_RLatLon0.03_PT009H.nc 2026-04-29 06:11 15M
20260429T00Z_MSC_CAPS_SeaIceInternalPressure_Sfc_RLatLon0.03_PT009H.nc 2026-04-29 06:11 15M
20260429T00Z_MSC_CAPS_SeaIceShear_Sfc_RLatLon0.03_PT009H.nc 2026-04-29 06:11 14M
20260429T00Z_MSC_CAPS_SeaIceSnowTemp_Sfc_RLatLon0.03_PT009H.nc 2026-04-29 06:11 15M
20260429T00Z_MSC_CAPS_SeaIceSnowVolume_Sfc_RLatLon0.03_PT009H.nc 2026-04-29 06:11 15M
20260429T00Z_MSC_CAPS_SeaIceVelocityX_Sfc_RLatLon0.03_PT009H.nc 2026-04-29 06:11 15M
20260429T00Z_MSC_CAPS_SeaIceVelocityY_Sfc_RLatLon0.03_PT009H.nc 2026-04-29 06:11 15M
20260429T00Z_MSC_CAPS_SeaIceVolume_Sfc_RLatLon0.03_PT009H.nc 2026-04-29 06:11 15M
20260429T00Z_MSC_CAPS_SeaSurfaceHeight_Sfc_RLatLon0.03_PT009H.nc 2026-04-29 06:11 16M
20260429T00Z_MSC_CAPS_SeaWaterSalinity_DBS-0.5m_RLatLon0.03_PT009H.nc 2026-04-29 06:11 16M
20260429T00Z_MSC_CAPS_SeaWaterSalinity_DBS-all_RLatLon0.03_PT009H.nc 2026-04-29 06:12 107M
20260429T00Z_MSC_CAPS_SeaWaterTemp_DBS-0.5m_RLatLon0.03_PT009H.nc 2026-04-29 06:11 14M
20260429T00Z_MSC_CAPS_SeaWaterTemp_DBS-all_RLatLon0.03_PT009H.nc 2026-04-29 06:12 87M
20260429T00Z_MSC_CAPS_SeaWaterVelocityX_DBS-0.5m_RLatLon0.03_PT009H.nc 2026-04-29 06:11 17M
20260429T00Z_MSC_CAPS_SeaWaterVelocityX_DBS-all_RLatLon0.03_PT009H.nc 2026-04-29 06:12 200M
20260429T00Z_MSC_CAPS_SeaWaterVelocityY_DBS-0.5m_RLatLon0.03_PT009H.nc 2026-04-29 06:11 17M
20260429T00Z_MSC_CAPS_SeaWaterVelocityY_DBS-all_RLatLon0.03_PT009H.nc 2026-04-29 06:12 209M
20260429T00Z_MSC_CAPS_SensibleHeatNetFlux_Sfc_RLatLon0.03_PT009H.grib2 2026-04-29 06:06 2.0M
20260429T00Z_MSC_CAPS_ShowalterIndex_IsbL-0500_RLatLon0.03_PT009H.grib2 2026-04-29 06:06 4.3M
20260429T00Z_MSC_CAPS_Snow-Accum_Sfc_RLatLon0.03_PT009H.grib2 2026-04-29 06:06 2.6M
20260429T00Z_MSC_CAPS_SnowDensity_Sfc_RLatLon0.03_PT009H.grib2 2026-04-29 06:06 1.2M
20260429T00Z_MSC_CAPS_SnowDepthWaterEquivalent_Sfc_RLatLon0.03_PT009H.grib2 2026-04-29 06:06 703K
20260429T00Z_MSC_CAPS_SnowDepth_Sfc_RLatLon0.03_PT009H.grib2 2026-04-29 06:06 1.2M
20260429T00Z_MSC_CAPS_SoilTemp_DBS-0to10cm_RLatLon0.03_PT009H.grib2 2026-04-29 06:06 1.4M
20260429T00Z_MSC_CAPS_SoilTemp_Sfc_RLatLon0.03_PT009H.grib2 2026-04-29 06:06 1.9M
20260429T00Z_MSC_CAPS_SoilVolumetricIceContent_Sfc_RLatLon0.03_PT009H.grib2 2026-04-29 06:06 1.4M
20260429T00Z_MSC_CAPS_SoilVolumetricWaterContent_DBS-0to10cm_RLatLon0.03_PT009H.grib2 2026-04-29 06:06 1.1M
20260429T00Z_MSC_CAPS_SoilVolumetricWaterContent_DBS-0to1cm_RLatLon0.03_PT009H.grib2 2026-04-29 06:06 1.7M
20260429T00Z_MSC_CAPS_SpecificHumidity_AGL-120m_RLatLon0.03_PT009H.grib2 2026-04-29 06:06 1.6M
20260429T00Z_MSC_CAPS_SpecificHumidity_AGL-2m_RLatLon0.03_PT009H.grib2 2026-04-29 06:06 2.1M
20260429T00Z_MSC_CAPS_SpecificHumidity_AGL-40m_RLatLon0.03_PT009H.grib2 2026-04-29 06:06 1.7M
20260429T00Z_MSC_CAPS_SpecificHumidity_AGL-80m_RLatLon0.03_PT009H.grib2 2026-04-29 06:06 1.7M
20260429T00Z_MSC_CAPS_SpecificHumidity_IsbL-0050_RLatLon0.03_PT009H.grib2 2026-04-29 06:06 871K
20260429T00Z_MSC_CAPS_SpecificHumidity_IsbL-0100_RLatLon0.03_PT009H.grib2 2026-04-29 06:06 944K
20260429T00Z_MSC_CAPS_SpecificHumidity_IsbL-0150_RLatLon0.03_PT009H.grib2 2026-04-29 06:06 1.0M
20260429T00Z_MSC_CAPS_SpecificHumidity_IsbL-0175_RLatLon0.03_PT009H.grib2 2026-04-29 06:06 968K
20260429T00Z_MSC_CAPS_SpecificHumidity_IsbL-0200_RLatLon0.03_PT009H.grib2 2026-04-29 06:06 842K
20260429T00Z_MSC_CAPS_SpecificHumidity_IsbL-0225_RLatLon0.03_PT009H.grib2 2026-04-29 06:06 1.0M
20260429T00Z_MSC_CAPS_SpecificHumidity_IsbL-0250_RLatLon0.03_PT009H.grib2 2026-04-29 06:06 1.0M
20260429T00Z_MSC_CAPS_SpecificHumidity_IsbL-0275_RLatLon0.03_PT009H.grib2 2026-04-29 06:06 972K
20260429T00Z_MSC_CAPS_SpecificHumidity_IsbL-0300_RLatLon0.03_PT009H.grib2 2026-04-29 06:06 1.2M
20260429T00Z_MSC_CAPS_SpecificHumidity_IsbL-0350_RLatLon0.03_PT009H.grib2 2026-04-29 06:06 1.1M
20260429T00Z_MSC_CAPS_SpecificHumidity_IsbL-0400_RLatLon0.03_PT009H.grib2 2026-04-29 06:06 1.1M
20260429T00Z_MSC_CAPS_SpecificHumidity_IsbL-0450_RLatLon0.03_PT009H.grib2 2026-04-29 06:06 1.0M
20260429T00Z_MSC_CAPS_SpecificHumidity_IsbL-0500_RLatLon0.03_PT009H.grib2 2026-04-29 06:06 1.3M
20260429T00Z_MSC_CAPS_SpecificHumidity_IsbL-0550_RLatLon0.03_PT009H.grib2 2026-04-29 06:06 1.2M
20260429T00Z_MSC_CAPS_SpecificHumidity_IsbL-0600_RLatLon0.03_PT009H.grib2 2026-04-29 06:06 1.3M
20260429T00Z_MSC_CAPS_SpecificHumidity_IsbL-0650_RLatLon0.03_PT009H.grib2 2026-04-29 06:06 1.4M
20260429T00Z_MSC_CAPS_SpecificHumidity_IsbL-0700_RLatLon0.03_PT009H.grib2 2026-04-29 06:06 1.6M
20260429T00Z_MSC_CAPS_SpecificHumidity_IsbL-0750_RLatLon0.03_PT009H.grib2 2026-04-29 06:06 1.7M
20260429T00Z_MSC_CAPS_SpecificHumidity_IsbL-0800_RLatLon0.03_PT009H.grib2 2026-04-29 06:06 1.4M
20260429T00Z_MSC_CAPS_SpecificHumidity_IsbL-0850_RLatLon0.03_PT009H.grib2 2026-04-29 06:06 1.6M
20260429T00Z_MSC_CAPS_SpecificHumidity_IsbL-0875_RLatLon0.03_PT009H.grib2 2026-04-29 06:06 1.6M
20260429T00Z_MSC_CAPS_SpecificHumidity_IsbL-0900_RLatLon0.03_PT009H.grib2 2026-04-29 06:06 1.7M
20260429T00Z_MSC_CAPS_SpecificHumidity_IsbL-0925_RLatLon0.03_PT009H.grib2 2026-04-29 06:06 1.7M
20260429T00Z_MSC_CAPS_SpecificHumidity_IsbL-0950_RLatLon0.03_PT009H.grib2 2026-04-29 06:06 1.8M
20260429T00Z_MSC_CAPS_SpecificHumidity_IsbL-0970_RLatLon0.03_PT009H.grib2 2026-04-29 06:06 1.9M
20260429T00Z_MSC_CAPS_SpecificHumidity_IsbL-0985_RLatLon0.03_PT009H.grib2 2026-04-29 06:06 1.9M
20260429T00Z_MSC_CAPS_SpecificHumidity_IsbL-1000_RLatLon0.03_PT009H.grib2 2026-04-29 06:06 2.0M
20260429T00Z_MSC_CAPS_SpecificHumidity_IsbL-1015_RLatLon0.03_PT009H.grib2 2026-04-29 06:06 2.1M
20260429T00Z_MSC_CAPS_SpecificHumidity_Sfc_RLatLon0.03_PT009H.grib2 2026-04-29 06:06 2.5M
20260429T00Z_MSC_CAPS_StormRelativeHelicity_Sfc_RLatLon0.03_PT009H.grib2 2026-04-29 06:06 3.2M
20260429T00Z_MSC_CAPS_Thickness_IsbL-1000to0500_RLatLon0.03_PT009H.grib2 2026-04-29 06:06 428K
20260429T00Z_MSC_CAPS_TotalCloudCover_Sfc_RLatLon0.03_PT009H.grib2 2026-04-29 06:06 3.5M
20260429T00Z_MSC_CAPS_TurboclineDepth_Sfc_RLatLon0.03_PT009H.nc 2026-04-29 06:11 16M
20260429T00Z_MSC_CAPS_UpwardLongwaveRadiationFlux_NTAtm_RLatLon0.03_PT009H.grib2 2026-04-29 06:06 2.8M
20260429T00Z_MSC_CAPS_UpwardShortwaveRadiationFlux_NTAtm_RLatLon0.03_PT009H.grib2 2026-04-29 06:06 1.7M
20260429T00Z_MSC_CAPS_VerticalVelocity_IsbL-0250_RLatLon0.03_PT009H.grib2 2026-04-29 06:06 894K
20260429T00Z_MSC_CAPS_VerticalVelocity_IsbL-0500_RLatLon0.03_PT009H.grib2 2026-04-29 06:06 1.1M
20260429T00Z_MSC_CAPS_VerticalVelocity_IsbL-0700_RLatLon0.03_PT009H.grib2 2026-04-29 06:06 922K
20260429T00Z_MSC_CAPS_VerticalVelocity_IsbL-0850_RLatLon0.03_PT009H.grib2 2026-04-29 06:06 1.2M
20260429T00Z_MSC_CAPS_VerticalVelocity_IsbL-1000_RLatLon0.03_PT009H.grib2 2026-04-29 06:06 1.1M
20260429T00Z_MSC_CAPS_WindDir_AGL-10m_RLatLon0.03_PT009H.grib2 2026-04-29 06:06 2.4M
20260429T00Z_MSC_CAPS_WindDir_AGL-120m_RLatLon0.03_PT009H.grib2 2026-04-29 06:06 1.3M
20260429T00Z_MSC_CAPS_WindDir_AGL-40m_RLatLon0.03_PT009H.grib2 2026-04-29 06:06 1.4M
20260429T00Z_MSC_CAPS_WindDir_AGL-80m_RLatLon0.03_PT009H.grib2 2026-04-29 06:06 1.3M
20260429T00Z_MSC_CAPS_WindDir_IsbL-0050_RLatLon0.03_PT009H.grib2 2026-04-29 06:06 1.0M
20260429T00Z_MSC_CAPS_WindDir_IsbL-0100_RLatLon0.03_PT009H.grib2 2026-04-29 06:06 1.0M
20260429T00Z_MSC_CAPS_WindDir_IsbL-0150_RLatLon0.03_PT009H.grib2 2026-04-29 06:06 1.0M
20260429T00Z_MSC_CAPS_WindDir_IsbL-0175_RLatLon0.03_PT009H.grib2 2026-04-29 06:06 1.0M
20260429T00Z_MSC_CAPS_WindDir_IsbL-0200_RLatLon0.03_PT009H.grib2 2026-04-29 06:06 1.1M
20260429T00Z_MSC_CAPS_WindDir_IsbL-0225_RLatLon0.03_PT009H.grib2 2026-04-29 06:06 1.1M
20260429T00Z_MSC_CAPS_WindDir_IsbL-0250_RLatLon0.03_PT009H.grib2 2026-04-29 06:06 1.1M
20260429T00Z_MSC_CAPS_WindDir_IsbL-0275_RLatLon0.03_PT009H.grib2 2026-04-29 06:06 1.1M
20260429T00Z_MSC_CAPS_WindDir_IsbL-0300_RLatLon0.03_PT009H.grib2 2026-04-29 06:06 1.1M
20260429T00Z_MSC_CAPS_WindDir_IsbL-0350_RLatLon0.03_PT009H.grib2 2026-04-29 06:06 1.1M
20260429T00Z_MSC_CAPS_WindDir_IsbL-0400_RLatLon0.03_PT009H.grib2 2026-04-29 06:06 1.1M
20260429T00Z_MSC_CAPS_WindDir_IsbL-0450_RLatLon0.03_PT009H.grib2 2026-04-29 06:06 1.2M
20260429T00Z_MSC_CAPS_WindDir_IsbL-0500_RLatLon0.03_PT009H.grib2 2026-04-29 06:06 1.2M
20260429T00Z_MSC_CAPS_WindDir_IsbL-0550_RLatLon0.03_PT009H.grib2 2026-04-29 06:06 1.2M
20260429T00Z_MSC_CAPS_WindDir_IsbL-0600_RLatLon0.03_PT009H.grib2 2026-04-29 06:06 1.3M
20260429T00Z_MSC_CAPS_WindDir_IsbL-0650_RLatLon0.03_PT009H.grib2 2026-04-29 06:06 1.3M
20260429T00Z_MSC_CAPS_WindDir_IsbL-0700_RLatLon0.03_PT009H.grib2 2026-04-29 06:06 1.4M
20260429T00Z_MSC_CAPS_WindDir_IsbL-0750_RLatLon0.03_PT009H.grib2 2026-04-29 06:06 1.5M
20260429T00Z_MSC_CAPS_WindDir_IsbL-0800_RLatLon0.03_PT009H.grib2 2026-04-29 06:06 1.6M
20260429T00Z_MSC_CAPS_WindDir_IsbL-0850_RLatLon0.03_PT009H.grib2 2026-04-29 06:06 1.8M
20260429T00Z_MSC_CAPS_WindDir_IsbL-0875_RLatLon0.03_PT009H.grib2 2026-04-29 06:06 1.9M
20260429T00Z_MSC_CAPS_WindDir_IsbL-0900_RLatLon0.03_PT009H.grib2 2026-04-29 06:06 1.9M
20260429T00Z_MSC_CAPS_WindDir_IsbL-0925_RLatLon0.03_PT009H.grib2 2026-04-29 06:06 2.0M
20260429T00Z_MSC_CAPS_WindDir_IsbL-0950_RLatLon0.03_PT009H.grib2 2026-04-29 06:06 2.1M
20260429T00Z_MSC_CAPS_WindDir_IsbL-0970_RLatLon0.03_PT009H.grib2 2026-04-29 06:06 2.2M
20260429T00Z_MSC_CAPS_WindDir_IsbL-0985_RLatLon0.03_PT009H.grib2 2026-04-29 06:06 2.2M
20260429T00Z_MSC_CAPS_WindDir_IsbL-1000_RLatLon0.03_PT009H.grib2 2026-04-29 06:06 2.3M
20260429T00Z_MSC_CAPS_WindDir_IsbL-1015_RLatLon0.03_PT009H.grib2 2026-04-29 06:06 2.4M
20260429T00Z_MSC_CAPS_WindGust-Max_AGL-10m_RLatLon0.03_PT009H.grib2 2026-04-29 06:06 2.4M
20260429T00Z_MSC_CAPS_WindGust-Min_AGL-10m_RLatLon0.03_PT009H.grib2 2026-04-29 06:06 2.3M
20260429T00Z_MSC_CAPS_WindGust_AGL-10m_RLatLon0.03_PT009H.grib2 2026-04-29 06:06 2.3M
20260429T00Z_MSC_CAPS_WindSpeed_AGL-10m_RLatLon0.03_PT009H.grib2 2026-04-29 06:06 2.1M
20260429T00Z_MSC_CAPS_WindSpeed_AGL-120m_RLatLon0.03_PT009H.grib2 2026-04-29 06:06 1.2M
20260429T00Z_MSC_CAPS_WindSpeed_AGL-40m_RLatLon0.03_PT009H.grib2 2026-04-29 06:06 1.3M
20260429T00Z_MSC_CAPS_WindSpeed_AGL-80m_RLatLon0.03_PT009H.grib2 2026-04-29 06:06 1.2M
20260429T00Z_MSC_CAPS_WindSpeed_IsbL-0050_RLatLon0.03_PT009H.grib2 2026-04-29 06:06 924K
20260429T00Z_MSC_CAPS_WindSpeed_IsbL-0100_RLatLon0.03_PT009H.grib2 2026-04-29 06:06 1.0M
20260429T00Z_MSC_CAPS_WindSpeed_IsbL-0150_RLatLon0.03_PT009H.grib2 2026-04-29 06:06 1.1M
20260429T00Z_MSC_CAPS_WindSpeed_IsbL-0175_RLatLon0.03_PT009H.grib2 2026-04-29 06:06 1.1M
20260429T00Z_MSC_CAPS_WindSpeed_IsbL-0200_RLatLon0.03_PT009H.grib2 2026-04-29 06:06 1.2M
20260429T00Z_MSC_CAPS_WindSpeed_IsbL-0225_RLatLon0.03_PT009H.grib2 2026-04-29 06:06 956K
20260429T00Z_MSC_CAPS_WindSpeed_IsbL-0250_RLatLon0.03_PT009H.grib2 2026-04-29 06:06 1.0M
20260429T00Z_MSC_CAPS_WindSpeed_IsbL-0275_RLatLon0.03_PT009H.grib2 2026-04-29 06:06 1.0M
20260429T00Z_MSC_CAPS_WindSpeed_IsbL-0300_RLatLon0.03_PT009H.grib2 2026-04-29 06:06 1.0M
20260429T00Z_MSC_CAPS_WindSpeed_IsbL-0350_RLatLon0.03_PT009H.grib2 2026-04-29 06:06 1.0M
20260429T00Z_MSC_CAPS_WindSpeed_IsbL-0400_RLatLon0.03_PT009H.grib2 2026-04-29 06:06 1.0M
20260429T00Z_MSC_CAPS_WindSpeed_IsbL-0450_RLatLon0.03_PT009H.grib2 2026-04-29 06:06 1.0M
20260429T00Z_MSC_CAPS_WindSpeed_IsbL-0500_RLatLon0.03_PT009H.grib2 2026-04-29 06:06 1.4M
20260429T00Z_MSC_CAPS_WindSpeed_IsbL-0550_RLatLon0.03_PT009H.grib2 2026-04-29 06:06 1.2M
20260429T00Z_MSC_CAPS_WindSpeed_IsbL-0600_RLatLon0.03_PT009H.grib2 2026-04-29 06:06 1.4M
20260429T00Z_MSC_CAPS_WindSpeed_IsbL-0650_RLatLon0.03_PT009H.grib2 2026-04-29 06:06 1.4M
20260429T00Z_MSC_CAPS_WindSpeed_IsbL-0700_RLatLon0.03_PT009H.grib2 2026-04-29 06:06 1.5M
20260429T00Z_MSC_CAPS_WindSpeed_IsbL-0750_RLatLon0.03_PT009H.grib2 2026-04-29 06:06 1.5M
20260429T00Z_MSC_CAPS_WindSpeed_IsbL-0800_RLatLon0.03_PT009H.grib2 2026-04-29 06:06 1.6M
20260429T00Z_MSC_CAPS_WindSpeed_IsbL-0850_RLatLon0.03_PT009H.grib2 2026-04-29 06:06 1.6M
20260429T00Z_MSC_CAPS_WindSpeed_IsbL-0875_RLatLon0.03_PT009H.grib2 2026-04-29 06:06 1.7M
20260429T00Z_MSC_CAPS_WindSpeed_IsbL-0900_RLatLon0.03_PT009H.grib2 2026-04-29 06:06 1.7M
20260429T00Z_MSC_CAPS_WindSpeed_IsbL-0925_RLatLon0.03_PT009H.grib2 2026-04-29 06:06 1.8M
20260429T00Z_MSC_CAPS_WindSpeed_IsbL-0950_RLatLon0.03_PT009H.grib2 2026-04-29 06:06 1.8M
20260429T00Z_MSC_CAPS_WindSpeed_IsbL-0970_RLatLon0.03_PT009H.grib2 2026-04-29 06:06 1.9M
20260429T00Z_MSC_CAPS_WindSpeed_IsbL-0985_RLatLon0.03_PT009H.grib2 2026-04-29 06:06 2.0M
20260429T00Z_MSC_CAPS_WindSpeed_IsbL-1000_RLatLon0.03_PT009H.grib2 2026-04-29 06:06 2.0M
20260429T00Z_MSC_CAPS_WindSpeed_IsbL-1015_RLatLon0.03_PT009H.grib2 2026-04-29 06:06 2.1M
20260429T00Z_MSC_CAPS_WindU_AGL-10m_RLatLon0.03_PT009H.grib2 2026-04-29 06:06 1.5M
20260429T00Z_MSC_CAPS_WindU_AGL-120m_RLatLon0.03_PT009H.grib2 2026-04-29 06:06 1.0M
20260429T00Z_MSC_CAPS_WindU_AGL-40m_RLatLon0.03_PT009H.grib2 2026-04-29 06:06 932K
20260429T00Z_MSC_CAPS_WindU_AGL-80m_RLatLon0.03_PT009H.grib2 2026-04-29 06:06 906K
20260429T00Z_MSC_CAPS_WindU_IsbL-0050_RLatLon0.03_PT009H.grib2 2026-04-29 06:06 942K
20260429T00Z_MSC_CAPS_WindU_IsbL-0100_RLatLon0.03_PT009H.grib2 2026-04-29 06:06 1.0M
20260429T00Z_MSC_CAPS_WindU_IsbL-0150_RLatLon0.03_PT009H.grib2 2026-04-29 06:06 719K
20260429T00Z_MSC_CAPS_WindU_IsbL-0175_RLatLon0.03_PT009H.grib2 2026-04-29 06:06 733K
20260429T00Z_MSC_CAPS_WindU_IsbL-0200_RLatLon0.03_PT009H.grib2 2026-04-29 06:06 875K
20260429T00Z_MSC_CAPS_WindU_IsbL-0225_RLatLon0.03_PT009H.grib2 2026-04-29 06:06 898K
20260429T00Z_MSC_CAPS_WindU_IsbL-0250_RLatLon0.03_PT009H.grib2 2026-04-29 06:06 919K
20260429T00Z_MSC_CAPS_WindU_IsbL-0275_RLatLon0.03_PT009H.grib2 2026-04-29 06:06 925K
20260429T00Z_MSC_CAPS_WindU_IsbL-0300_RLatLon0.03_PT009H.grib2 2026-04-29 06:06 932K
20260429T00Z_MSC_CAPS_WindU_IsbL-0350_RLatLon0.03_PT009H.grib2 2026-04-29 06:06 947K
20260429T00Z_MSC_CAPS_WindU_IsbL-0400_RLatLon0.03_PT009H.grib2 2026-04-29 06:06 950K
20260429T00Z_MSC_CAPS_WindU_IsbL-0450_RLatLon0.03_PT009H.grib2 2026-04-29 06:06 961K
20260429T00Z_MSC_CAPS_WindU_IsbL-0500_RLatLon0.03_PT009H.grib2 2026-04-29 06:06 1.0M
20260429T00Z_MSC_CAPS_WindU_IsbL-0550_RLatLon0.03_PT009H.grib2 2026-04-29 06:06 898K
20260429T00Z_MSC_CAPS_WindU_IsbL-0600_RLatLon0.03_PT009H.grib2 2026-04-29 06:06 926K
20260429T00Z_MSC_CAPS_WindU_IsbL-0650_RLatLon0.03_PT009H.grib2 2026-04-29 06:06 1.2M
20260429T00Z_MSC_CAPS_WindU_IsbL-0700_RLatLon0.03_PT009H.grib2 2026-04-29 06:06 1.0M
20260429T00Z_MSC_CAPS_WindU_IsbL-0750_RLatLon0.03_PT009H.grib2 2026-04-29 06:06 1.0M
20260429T00Z_MSC_CAPS_WindU_IsbL-0800_RLatLon0.03_PT009H.grib2 2026-04-29 06:06 1.1M
20260429T00Z_MSC_CAPS_WindU_IsbL-0850_RLatLon0.03_PT009H.grib2 2026-04-29 06:06 1.3M
20260429T00Z_MSC_CAPS_WindU_IsbL-0875_RLatLon0.03_PT009H.grib2 2026-04-29 06:06 1.3M
20260429T00Z_MSC_CAPS_WindU_IsbL-0900_RLatLon0.03_PT009H.grib2 2026-04-29 06:06 1.3M
20260429T00Z_MSC_CAPS_WindU_IsbL-0925_RLatLon0.03_PT009H.grib2 2026-04-29 06:06 1.4M
20260429T00Z_MSC_CAPS_WindU_IsbL-0950_RLatLon0.03_PT009H.grib2 2026-04-29 06:06 1.4M
20260429T00Z_MSC_CAPS_WindU_IsbL-0970_RLatLon0.03_PT009H.grib2 2026-04-29 06:06 1.5M
20260429T00Z_MSC_CAPS_WindU_IsbL-0985_RLatLon0.03_PT009H.grib2 2026-04-29 06:06 1.4M
20260429T00Z_MSC_CAPS_WindU_IsbL-1000_RLatLon0.03_PT009H.grib2 2026-04-29 06:06 1.4M
20260429T00Z_MSC_CAPS_WindU_IsbL-1015_RLatLon0.03_PT009H.grib2 2026-04-29 06:06 1.5M
20260429T00Z_MSC_CAPS_WindV_AGL-10m_RLatLon0.03_PT009H.grib2 2026-04-29 06:06 2.0M
20260429T00Z_MSC_CAPS_WindV_AGL-120m_RLatLon0.03_PT009H.grib2 2026-04-29 06:06 1.2M
20260429T00Z_MSC_CAPS_WindV_AGL-40m_RLatLon0.03_PT009H.grib2 2026-04-29 06:06 1.2M
20260429T00Z_MSC_CAPS_WindV_AGL-80m_RLatLon0.03_PT009H.grib2 2026-04-29 06:06 1.2M
20260429T00Z_MSC_CAPS_WindV_IsbL-0050_RLatLon0.03_PT009H.grib2 2026-04-29 06:06 769K
20260429T00Z_MSC_CAPS_WindV_IsbL-0100_RLatLon0.03_PT009H.grib2 2026-04-29 06:06 803K
20260429T00Z_MSC_CAPS_WindV_IsbL-0150_RLatLon0.03_PT009H.grib2 2026-04-29 06:06 924K
20260429T00Z_MSC_CAPS_WindV_IsbL-0175_RLatLon0.03_PT009H.grib2 2026-04-29 06:06 731K
20260429T00Z_MSC_CAPS_WindV_IsbL-0200_RLatLon0.03_PT009H.grib2 2026-04-29 06:06 874K
20260429T00Z_MSC_CAPS_WindV_IsbL-0225_RLatLon0.03_PT009H.grib2 2026-04-29 06:06 894K
20260429T00Z_MSC_CAPS_WindV_IsbL-0250_RLatLon0.03_PT009H.grib2 2026-04-29 06:06 918K
20260429T00Z_MSC_CAPS_WindV_IsbL-0275_RLatLon0.03_PT009H.grib2 2026-04-29 06:06 924K
20260429T00Z_MSC_CAPS_WindV_IsbL-0300_RLatLon0.03_PT009H.grib2 2026-04-29 06:06 933K
20260429T00Z_MSC_CAPS_WindV_IsbL-0350_RLatLon0.03_PT009H.grib2 2026-04-29 06:06 947K
20260429T00Z_MSC_CAPS_WindV_IsbL-0400_RLatLon0.03_PT009H.grib2 2026-04-29 06:06 952K
20260429T00Z_MSC_CAPS_WindV_IsbL-0450_RLatLon0.03_PT009H.grib2 2026-04-29 06:06 965K
20260429T00Z_MSC_CAPS_WindV_IsbL-0500_RLatLon0.03_PT009H.grib2 2026-04-29 06:06 1.0M
20260429T00Z_MSC_CAPS_WindV_IsbL-0550_RLatLon0.03_PT009H.grib2 2026-04-29 06:06 897K
20260429T00Z_MSC_CAPS_WindV_IsbL-0600_RLatLon0.03_PT009H.grib2 2026-04-29 06:06 925K
20260429T00Z_MSC_CAPS_WindV_IsbL-0650_RLatLon0.03_PT009H.grib2 2026-04-29 06:06 1.2M
20260429T00Z_MSC_CAPS_WindV_IsbL-0700_RLatLon0.03_PT009H.grib2 2026-04-29 06:06 1.3M
20260429T00Z_MSC_CAPS_WindV_IsbL-0750_RLatLon0.03_PT009H.grib2 2026-04-29 06:06 1.3M
20260429T00Z_MSC_CAPS_WindV_IsbL-0800_RLatLon0.03_PT009H.grib2 2026-04-29 06:06 1.4M
20260429T00Z_MSC_CAPS_WindV_IsbL-0850_RLatLon0.03_PT009H.grib2 2026-04-29 06:06 1.5M
20260429T00Z_MSC_CAPS_WindV_IsbL-0875_RLatLon0.03_PT009H.grib2 2026-04-29 06:06 1.5M
20260429T00Z_MSC_CAPS_WindV_IsbL-0900_RLatLon0.03_PT009H.grib2 2026-04-29 06:06 1.6M
20260429T00Z_MSC_CAPS_WindV_IsbL-0925_RLatLon0.03_PT009H.grib2 2026-04-29 06:06 1.6M
20260429T00Z_MSC_CAPS_WindV_IsbL-0950_RLatLon0.03_PT009H.grib2 2026-04-29 06:06 1.7M
20260429T00Z_MSC_CAPS_WindV_IsbL-0970_RLatLon0.03_PT009H.grib2 2026-04-29 06:06 1.7M
20260429T00Z_MSC_CAPS_WindV_IsbL-0985_RLatLon0.03_PT009H.grib2 2026-04-29 06:06 1.8M
20260429T00Z_MSC_CAPS_WindV_IsbL-1000_RLatLon0.03_PT009H.grib2 2026-04-29 06:06 1.9M
20260429T00Z_MSC_CAPS_WindV_IsbL-1015_RLatLon0.03_PT009H.grib2 2026-04-29 06:06 1.9M